When you browse on this site, cookies collect data to enhance your experience and personalize the content and advertising you see.
Visit our Privacy Policy to learn more. By continuing to use the site, you agree to this use of cookies and data.
  • In Hungary
  • List of Countries
  • For 7 days
  • Water Temperature
  • Weather Map
  • News
  • Weather Widgets
  • user-avatar
    Login

    Hourly Weather Turskaya

    Today, 24 January, Friday

    Time Temperature Precipitation Wind Pressure Humidity
    00:00 -4°C° 0.1 mm 4 mps 738 mmHg 82%
    01:00 -4°C° 0.1 mm 4 mps 737 mmHg 87%
    02:00 -4°C° 0.1 mm 4 mps 736 mmHg 92%
    03:00 -4°C° 0.1 mm 4 mps 735 mmHg 91%
    04:00 -5°C° 0.1 mm 5 mps 734 mmHg 90%
    05:00 -4°C° 0.1 mm 5 mps 733 mmHg 90%
    06:00 -4°C° 0.5 mm 5 mps 733 mmHg 92%
    07:00 -3°C° 0.5 mm 4 mps 732 mmHg 94%
    08:00 -2°C° 0.5 mm 4 mps 732 mmHg 97%
    09:00 -1°C° 0.1 mm 4 mps 731 mmHg 95%
    10:00 -1°C° 0.1 mm 5 mps 731 mmHg 94%
    11:00 0°C° 0.1 mm 5 mps 730 mmHg 92%
    12:00 0°C° 0.2 mm 5 mps 730 mmHg 91%
    13:00 +1°C° 0.2 mm 6 mps 729 mmHg 91%
    14:00 +1°C° 0.2 mm 6 mps 729 mmHg 91%
    15:00 -1°C° 0.1 mm 6 mps 729 mmHg 91%
    16:00 -1°C° 0.1 mm 6 mps 729 mmHg 91%
    17:00 -1°C° 0.1 mm 6 mps 729 mmHg 91%
    18:00 -1°C° 0 mm 5 mps 729 mmHg 91%
    19:00 -1°C° 0 mm 4 mps 730 mmHg 92%
    20:00 -1°C° 0 mm 3 mps 730 mmHg 92%
    21:00 -1°C° 0.2 mm 3 mps 730 mmHg 94%
    22:00 -1°C° 0.2 mm 3 mps 730 mmHg 96%
    23:00 -1°C° 0.2 mm 2 mps 729 mmHg 97%

    Tomorrow, 25 January, Saturday

    Time Temperature Precipitation Wind Pressure Humidity
    00:00 -1°C° 0.4 mm 3 mps 729 mmHg 96%
    01:00 -1°C° 0.4 mm 4 mps 729 mmHg 95%
    02:00 -1°C° 0.4 mm 4 mps 729 mmHg 94%
    03:00 -1°C° 0.1 mm 4 mps 729 mmHg 92%
    04:00 -1°C° 0.1 mm 4 mps 728 mmHg 90%
    05:00 -1°C° 0.1 mm 4 mps 728 mmHg 89%
    06:00 -1°C° 0 mm 5 mps 728 mmHg 87%
    07:00 -1°C° 0 mm 5 mps 727 mmHg 85%
    08:00 -2°C° 0 mm 6 mps 727 mmHg 84%
    09:00 -2°C° 0.3 mm 6 mps 727 mmHg 84%
    10:00 -3°C° 0.3 mm 6 mps 727 mmHg 84%
    11:00 -3°C° 0.3 mm 7 mps 726 mmHg 84%
    12:00 -3°C° 0.5 mm 7 mps 727 mmHg 78%
    13:00 -3°C° 0.5 mm 7 mps 727 mmHg 72%
    14:00 -3°C° 0.5 mm 7 mps 727 mmHg 66%
    15:00 -4°C° 0.1 mm 7 mps 728 mmHg 71%
    16:00 -4°C° 0.1 mm 7 mps 728 mmHg 75%
    17:00 -5°C° 0.1 mm 6 mps 729 mmHg 79%
    18:00 -5°C° 0.1 mm 6 mps 729 mmHg 80%
    19:00 -5°C° 0.1 mm 6 mps 730 mmHg 80%
    20:00 -6°C° 0.1 mm 7 mps 730 mmHg 81%
    21:00 -6°C° 0.1 mm 7 mps 731 mmHg 80%
    22:00 -5°C° 0.1 mm 6 mps 732 mmHg 79%
    23:00 -5°C° 0.1 mm 6 mps 732 mmHg 79%

    Day after tomorrow, 26 January, Sunday

    Time Temperature Precipitation Wind Pressure Humidity
    00:00 -5°C° 0 mm 6 mps 733 mmHg 78%
    01:00 -5°C° 0 mm 6 mps 734 mmHg 78%
    02:00 -6°C° 0 mm 5 mps 735 mmHg 78%
    03:00 -6°C° 0 mm 5 mps 735 mmHg 80%
    04:00 -5°C° 0 mm 4 mps 736 mmHg 82%
    05:00 -5°C° 0 mm 4 mps 737 mmHg 83%
    06:00 -7°C° 0 mm 4 mps 737 mmHg 85%
    07:00 -6°C° 0 mm 3 mps 738 mmHg 86%
    08:00 -6°C° 0 mm 3 mps 738 mmHg 87%
    09:00 -5°C° 0 mm 3 mps 738 mmHg 83%
    10:00 -4°C° 0 mm 3 mps 738 mmHg 80%
    11:00 -4°C° 0 mm 3 mps 738 mmHg 77%
    12:00 -3°C° 0.1 mm 4 mps 738 mmHg 81%
    13:00 -3°C° 0.1 mm 4 mps 738 mmHg 85%
    14:00 -3°C° 0.1 mm 4 mps 737 mmHg 89%
    15:00 -3°C° 0.3 mm 4 mps 737 mmHg 92%
    16:00 -2°C° 0.3 mm 4 mps 736 mmHg 94%
    17:00 -2°C° 0.3 mm 4 mps 736 mmHg 97%
    18:00 -1°C° 0.3 mm 4 mps 736 mmHg 96%
    19:00 0°C° 0.3 mm 5 mps 736 mmHg 96%
    20:00 +1°C° 0.3 mm 5 mps 736 mmHg 96%
    21:00 +1°C° 0.1 mm 5 mps 736 mmHg 96%
    22:00 +1°C° 0.1 mm 5 mps 736 mmHg 95%
    23:00 +1°C° 0.1 mm 5 mps 736 mmHg 95%

    27 January, Monday

    Time Temperature Precipitation Wind Pressure Humidity
    00:00 +1°C° 0.4 mm 5 mps 736 mmHg 95%
    01:00 +1°C° 0.4 mm 5 mps 736 mmHg 96%
    02:00 +1°C° 0.4 mm 4 mps 736 mmHg 96%
    03:00 +1°C° 0.6 mm 4 mps 736 mmHg 96%
    04:00 +1°C° 0.6 mm 4 mps 737 mmHg 96%
    05:00 0°C° 0.6 mm 4 mps 737 mmHg 97%
    06:00 0°C° 0.4 mm 4 mps 737 mmHg 97%
    07:00 0°C° 0.4 mm 4 mps 737 mmHg 97%
    08:00 0°C° 0.4 mm 4 mps 737 mmHg 97%
    09:00 0°C° 0.2 mm 4 mps 737 mmHg 97%
    10:00 0°C° 0.2 mm 4 mps 737 mmHg 97%
    11:00 0°C° 0.2 mm 4 mps 737 mmHg 97%
    12:00 +1°C° 0.1 mm 3 mps 737 mmHg 97%
    13:00 +1°C° 0.1 mm 3 mps 737 mmHg 97%
    14:00 +1°C° 0.1 mm 3 mps 737 mmHg 97%
    15:00 +1°C° 0.2 mm 3 mps 737 mmHg 97%
    16:00 +1°C° 0.2 mm 3 mps 737 mmHg 97%
    17:00 +2°C° 0.2 mm 2 mps 737 mmHg 98%
    18:00 +2°C° 0.2 mm 2 mps 737 mmHg 98%
    19:00 +2°C° 0.2 mm 2 mps 737 mmHg 98%
    20:00 +2°C° 0.2 mm 2 mps 737 mmHg 98%
    21:00 +2°C° 0.2 mm 2 mps 737 mmHg 98%
    22:00 +2°C° 0.2 mm 2 mps 737 mmHg 98%
    23:00 +2°C° 0.2 mm 2 mps 737 mmHg 98%

    28 January, Tuesday

    Time Temperature Precipitation Wind Pressure Humidity
    00:00 +1°C° 0.2 mm 2 mps 737 mmHg 98%
    01:00 +1°C° 0.2 mm 2 mps 737 mmHg 98%
    02:00 +1°C° 0.2 mm 2 mps 737 mmHg 98%
    03:00 +1°C° 0.1 mm 2 mps 736 mmHg 98%
    04:00 +1°C° 0.1 mm 2 mps 736 mmHg 98%
    05:00 +1°C° 0.1 mm 2 mps 736 mmHg 98%
    06:00 +1°C° 0 mm 2 mps 736 mmHg 98%
    07:00 +1°C° 0 mm 2 mps 736 mmHg 98%
    08:00 +1°C° 0 mm 2 mps 736 mmHg 98%
    09:00 +1°C° 0 mm 2 mps 736 mmHg 97%
    10:00 +1°C° 0 mm 2 mps 736 mmHg 96%
    11:00 +1°C° 0 mm 2 mps 736 mmHg 96%
    12:00 +1°C° 0 mm 2 mps 736 mmHg 96%
    13:00 0°C° 0 mm 3 mps 735 mmHg 96%
    14:00 0°C° 0 mm 3 mps 735 mmHg 96%
    15:00 0°C° 0 mm 3 mps 735 mmHg 94%
    16:00 -1°C° 0 mm 3 mps 735 mmHg 92%
    17:00 -1°C° 0 mm 3 mps 734 mmHg 90%
    18:00 -1°C° 0 mm 3 mps 734 mmHg 90%
    19:00 -2°C° 0 mm 4 mps 734 mmHg 90%
    20:00 -2°C° 0 mm 4 mps 734 mmHg 89%
    21:00 -2°C° 0 mm 4 mps 733 mmHg 91%
    22:00 -1°C° 0 mm 4 mps 733 mmHg 92%
    23:00 -1°C° 0 mm 5 mps 733 mmHg 93%

    29 January, Wednesday

    Time Temperature Precipitation Wind Pressure Humidity
    00:00 -1°C° 0 mm 5 mps 732 mmHg 93%
    01:00 -1°C° 0 mm 5 mps 732 mmHg 92%
    02:00 0°C° 0 mm 5 mps 731 mmHg 92%
    03:00 -1°C° 0 mm 5 mps 731 mmHg 92%
    04:00 -1°C° 0 mm 5 mps 730 mmHg 92%
    05:00 -1°C° 0 mm 5 mps 730 mmHg 93%
    06:00 -1°C° 0 mm 5 mps 729 mmHg 93%
    07:00 -1°C° 0 mm 5 mps 729 mmHg 94%
    08:00 0°C° 0 mm 5 mps 728 mmHg 94%
    09:00 0°C° 0.4 mm 5 mps 728 mmHg 95%
    10:00 0°C° 0.4 mm 5 mps 728 mmHg 95%
    11:00 -1°C° 0.4 mm 5 mps 728 mmHg 95%
    12:00 0°C° 0.1 mm 4 mps 728 mmHg 92%
    13:00 0°C° 0.1 mm 4 mps 728 mmHg 88%
    14:00 +1°C° 0.1 mm 3 mps 728 mmHg 85%
    15:00 +1°C° 0 mm 3 mps 729 mmHg 86%
    16:00 0°C° 0 mm 3 mps 729 mmHg 87%
    17:00 -1°C° 0 mm 3 mps 729 mmHg 89%
    18:00 -1°C° 0 mm 3 mps 729 mmHg 88%
    19:00 -2°C° 0 mm 4 mps 728 mmHg 87%
    20:00 -2°C° 0 mm 4 mps 728 mmHg 86%
    21:00 -2°C° 0.2 mm 4 mps 728 mmHg 88%
    22:00 -2°C° 0.2 mm 4 mps 727 mmHg 90%
    23:00 -1°C° 0.2 mm 4 mps 727 mmHg 92%
    Show more